Wind_Speed
14 16 18 20 22 23 27 29 31 32 32 34 38 40 40 42 45 44 44 44 45 44 45 45 45 44 43 42 43 43 44 44 44 44 43 42 40 40 39 39 39 38 38 38
13 15 16 19 19 20 24 25 28 29 29 31 34 37 38 41 43 44 44 44 44 44 45 46 46 45 44 43 43 43 44 44 44 44 44 43 42 41 41 40 40 40 40 39
12 12 15 17 18 20 22 22 24 26 27 29 32 35 36 39 41 43 44 44 45 45 45 45 46 46 45 45 44 43 44 45 45 45 44 44 43 43 42 41 41 42 41 41
10 11 13 15 17 19 21 20 21 22 23 26 29 32 34 36 38 40 41 43 44 44 45 46 47 46 46 46 45 45 45 46 46 46 45 44 43 43 43 43 43 43 43 44
10 11 12 13 15 16 18 18 19 21 22 24 27 30 31 33 35 38 40 41 42 43 44 45 46 46 47 46 46 46 45 45 46 46 46 45 45 44 44 45 44 44 44 44
10 11 11 12 12 15 16 17 17 19 21 23 24 27 28 31 32 33 36 39 39 40 43 44 45 46 46 47 47 46 45 45 45 45 46 46 46 46 46 46 44 43 43 42
9 11 12 12 13 14 16 17 18 19 21 23 23 25 27 27 29 32 34 36 37 37 39 40 42 44 45 46 46 46 45 45 46 46 47 47 47 47 47 47 46 45 43 43
11 11 11 13 14 14 14 16 18 19 20 21 22 25 24 25 27 31 32 33 36 37 37 39 40 41 43 44 45 46 45 44 44 45 46 47 48 48 48 47 47 47 46 44
12 12 12 13 14 15 16 17 18 19 20 20 21 23 24 24 26 28 30 30 32 35 36 38 39 40 41 42 44 45 46 46 46 45 44 45 46 47 47 47 47 47 47 47
13 14 14 13 14 16 18 17 18 20 21 20 20 21 22 23 25 27 29 30 30 32 34 36 37 38 39 41 43 44 45 45 46 45 44 45 45 45 46 47 46 45 45 45
14 14 14 14 16 17 18 18 19 21 21 21 20 20 20 21 23 26 27 29 29 30 32 34 35 37 38 40 42 43 43 44 46 46 46 45 45 46 45 47 46 45 45 44
15 15 15 15 15 16 18 18 19 21 22 22 22 21 21 21 22 24 26 27 28 29 31 32 34 35 37 39 40 41 41 42 43 45 45 45 45 46 46 46 46 45 45 46
14 15 17 16 16 16 18 18 20 21 22 21 21 20 20 22 21 22 23 25 27 29 30 31 33 34 35 37 38 39 39 40 41 42 44 45 45 45 46 47 46 45 46 46
14 14 16 18 17 16 17 18 20 21 21 21 20 20 20 21 22 22 23 22 24 27 28 30 32 33 34 36 37 39 40 40 41 42 43 44 45 45 46 47 46 45 45 45
13 13 14 16 18 18 19 18 19 21 22 22 21 20 19 21 22 23 23 23 23 25 28 29 31 33 34 36 37 39 40 41 41 41 42 43 43 44 45 45 45 45 45 44
14 14 14 16 18 20 21 21 21 21 22 23 23 21 21 22 22 24 25 24 25 25 27 29 32 33 34 35 36 38 40 41 41 41 42 42 42 42 43 43 43 43 43 42
16 15 16 16 17 18 20 21 22 22 22 24 24 22 22 23 23 24 25 26 26 26 28 29 31 32 32 33 35 37 38 39 40 40 40 40 40 41 42 42 42 42 42 41
17 17 17 17 18 19 19 19 21 22 23 23 24 24 24 23 23 25 26 27 27 28 29 29 30 32 33 34 35 36 38 39 40 40 39 39 39 40 42 42 42 42 42 42
19 19 20 19 20 20 19 19 20 21 21 23 23 24 24 24 24 24 27 27 27 28 29 30 31 32 34 35 36 35 36 37 38 39 39 40 40 40 41 42 42 42 41 41
20 21 22 22 22 22 20 20 20 21 21 21 22 23 24 25 25 24 26 28 30 30 30 31 31 32 33 35 35 35 35 36 37 38 39 39 39 39 40 40 40 40 40 40
20 21 22 23 24 23 22 22 22 23 23 23 23 22 22 24 25 25 26 27 28 30 30 31 32 32 32 33 34 34 35 36 37 38 40 39 39 38 38 39 38 39 39 38
20 21 22 24 25 24 23 23 24 24 25 25 25 25 24 24 24 26 27 27 28 30 30 30 31 31 31 32 34 35 35 36 37 38 38 38 38 37 38 38 37 37 37 37
21 22 23 24 25 24 24 25 25 25 26 26 26 27 26 26 25 25 26 28 28 28 30 31 31 31 31 32 33 35 35 35 35 35 36 36 37 37 37 36 36 36 35 35
23 23 24 24 24 24 25 26 26 27 27 27 28 28 28 27 27 27 26 27 28 28 28 29 30 31 31 32 32 33 33 33 34 34 35 36 35 35 35 36 35 35 35 35
23 23 23 24 24 24 25 27 28 28 28 28 28 28 28 28 28 28 27 27 27 28 28 29 29 29 30 31 32 32 32 32 33 33 33 33 33 34 34 34 35 35 36 35
23 23 24 24 25 26 26 27 28 29 29 29 29 29 29 29 28 28 27 27 27 27 27 28 29 30 29 30 30 31 31 31 32 33 32 31 32 32 33 33 34 35 35 35
Wind_Direction
249 244 234 234 235 237 234 233 229 231 234 236 235 234 233 232 230 229 230 231 231 229 227 229 230 232 234 233 234 234 235 236 238 240 241 244 247 248 251 253 256 260 263 265
247 240 233 232 230 233 231 231 231 232 235 237 236 234 233 232 231 231 231 231 230 230 229 230 232 233 236 235 234 236 237 238 239 241 243 245 248 250 252 254 257 261 264 265
245 241 233 231 229 234 232 232 234 234 238 238 237 234 233 232 231 231 230 230 231 233 233 233 233 234 236 237 237 238 239 240 241 243 244 246 248 251 254 257 260 262 264 266
240 240 234 231 231 232 229 233 235 236 240 239 237 236 232 230 231 230 230 231 232 234 235 234 235 236 237 239 240 240 240 241 243 244 245 247 249 253 255 258 260 262 264 266
235 233 229 228 226 229 230 235 239 240 241 241 237 237 233 229 229 228 230 231 233 236 236 236 236 237 237 239 240 241 241 243 244 245 246 247 249 252 255 258 262 263 265 266
240 235 228 225 225 231 234 235 237 240 243 241 235 237 234 230 230 231 232 233 235 237 236 236 236 237 238 238 239 241 242 244 245 246 248 249 250 251 254 258 261 263 265 266
238 235 231 229 229 230 232 235 235 238 242 242 239 240 237 234 232 233 236 235 236 239 237 235 236 237 238 239 240 241 242 244 246 247 248 250 250 252 255 258 261 264 266 266
247 238 233 236 237 236 237 238 235 238 241 242 243 242 239 236 236 235 238 239 238 239 239 239 239 240 242 241 241 242 243 245 246 248 248 249 250 253 256 258 261 263 263 265
252 246 239 245 243 237 239 239 239 241 244 247 247 243 242 242 240 238 239 240 241 241 242 243 244 245 246 243 242 243 243 245 248 250 250 251 252 253 255 257 260 262 262 263
251 247 243 245 243 241 241 241 243 245 245 250 250 245 246 247 246 244 243 243 243 243 244 245 246 246 247 247 245 244 244 246 248 250 251 252 253 255 257 257 258 260 261 263
250 246 246 249 243 242 241 244 244 248 251 253 253 251 252 253 251 249 248 246 245 246 247 247 247 246 248 248 247 244 244 246 248 250 251 253 255 256 257 257 258 259 261 263
247 244 245 248 245 242 243 247 249 251 253 256 259 257 255 257 255 252 250 248 248 248 248 248 247 248 248 248 246 245 244 246 248 249 250 253 254 255 256 257 258 259 261 263
256 251 246 245 243 244 245 247 250 253 255 257 258 261 258 259 259 256 253 251 250 250 248 248 248 248 248 248 248 245 245 246 248 250 252 253 254 255 256 256 258 261 261 262
256 257 251 248 247 248 249 250 252 253 256 258 261 264 264 263 260 258 255 253 252 250 249 248 248 249 250 249 250 248 248 248 249 251 253 255 255 255 256 257 258 260 261 263
260 261 259 252 250 249 249 252 253 253 257 261 263 266 268 266 262 258 256 255 255 254 252 252 251 252 253 252 252 251 251 251 252 254 256 257 256 256 257 257 257 259 261 263
260 257 257 255 253 255 255 255 257 257 259 264 265 266 269 266 262 260 259 259 260 259 258 257 256 256 255 253 253 254 253 251 252 253 256 257 257 257 257 258 260 260 261 263
262 259 257 256 256 259 259 259 260 261 260 264 266 267 268 266 262 262 262 262 263 264 263 262 261 260 257 257 256 256 254 253 252 254 255 257 258 259 259 260 260 260 261 264
265 264 264 261 258 260 263 261 261 261 261 264 268 269 267 267 264 261 262 264 265 266 264 262 260 260 260 258 256 256 256 255 254 255 256 257 259 260 261 261 261 261 263 266
267 268 267 267 265 263 263 264 265 266 264 265 269 270 268 266 264 262 263 265 265 266 265 264 263 263 262 261 259 258 256 256 255 256 256 257 259 260 261 262 262 263 264 267
267 268 268 267 266 268 268 267 267 269 269 268 270 271 269 267 267 265 264 266 267 268 267 266 265 264 263 261 260 259 258 257 256 256 256 258 259 260 261 262 262 263 265 266
269 270 270 269 268 269 271 269 269 270 271 273 274 274 273 273 271 270 269 270 270 270 268 266 266 265 265 262 261 260 259 259 258 257 257 259 260 261 261 261 262 264 265 267
272 273 273 270 269 271 271 271 270 271 271 273 274 275 276 278 278 276 273 272 272 270 269 269 268 266 264 263 263 262 261 260 260 259 259 259 260 260 262 262 262 264 265 267
275 277 278 275 272 272 271 271 271 271 272 274 275 275 276 279 279 279 276 275 274 273 271 270 269 268 265 263 264 263 262 261 260 259 258 259 260 260 260 261 262 263 264 267
278 280 278 278 277 275 273 272 271 273 274 275 274 275 276 278 279 279 279 277 274 272 273 272 270 267 264 263 262 261 260 261 260 259 260 260 260 260 261 262 262 263 265 267
281 281 279 278 278 275 273 272 271 272 273 275 276 276 276 277 279 278 278 277 274 272 271 271 270 268 266 264 262 262 262 261 260 260 261 260 260 261 262 262 262 263 265 267
283 283 281 278 276 274 274 273 272 273 274 275 276 276 275 276 277 277 277 275 274 272 272 272 271 269 268 266 263 260 259 261 261 261 261 261 262 262 262 262 263 264 266 267
Height
5648 5649 5650 5653 5656 5658 5661 5664 5668 5673 5677 5680 5684 5690 5695 5699 5704 5709 5715 5721 5726 5733 5738 5742 5748 5753 5757 5761 5765 5770 5774 5778 5781 5785 5788 5791 5793 5795 5797 5798 5799 5800 5800 5801
5646 5646 5648 5650 5652 5654 5656 5660 5664 5668 5671 5674 5678 5683 5687 5690 5696 5701 5707 5713 5719 5724 5729 5734 5740 5744 5749 5752 5757 5762 5766 5769 5773 5776 5779 5782 5785 5787 5788 5789 5790 5791 5792 5792
5644 5645 5645 5647 5649 5651 5654 5657 5660 5663 5666 5668 5671 5675 5679 5683 5688 5693 5699 5704 5710 5715 5721 5726 5731 5736 5740 5744 5749 5752 5756 5760 5763 5767 5770 5773 5775 5778 5779 5781 5782 5782 5782 5782
5641 5642 5643 5644 5646 5648 5651 5654 5657 5659 5661 5663 5665 5667 5673 5676 5680 5686 5691 5697 5702 5707 5712 5717 5722 5726 5730 5735 5739 5743 5746 5750 5753 5757 5760 5763 5766 5768 5770 5771 5772 5773 5773 5773
5639 5640 5641 5642 5644 5646 5649 5652 5654 5656 5657 5658 5660 5661 5666 5669 5673 5679 5684 5689 5694 5699 5704 5708 5713 5717 5721 5725 5729 5732 5736 5740 5743 5746 5750 5753 5755 5758 5760 5761 5762 5763 5763 5763
5638 5638 5639 5641 5643 5645 5647 5649 5650 5651 5652 5654 5656 5657 5661 5664 5669 5673 5677 5681 5686 5690 5694 5699 5703 5707 5711 5715 5719 5722 5726 5730 5733 5736 5739 5742 5745 5747 5749 5750 5750 5751 5752 5753
5637 5637 5638 5639 5641 5642 5644 5645 5647 5646 5647 5649 5652 5652 5656 5661 5664 5668 5672 5675 5679 5682 5685 5689 5693 5698 5701 5705 5709 5713 5716 5720 5723 5726 5729 5731 5734 5736 5738 5739 5740 5741 5741 5742
5635 5636 5636 5637 5638 5639 5640 5642 5643 5643 5643 5645 5647 5648 5653 5656 5658 5661 5664 5668 5671 5674 5677 5681 5685 5688 5692 5695 5699 5702 5706 5709 5712 5715 5718 5720 5723 5724 5726 5728 5729 5730 5730 5731
5632 5634 5634 5635 5635 5637 5637 5638 5640 5641 5640 5642 5643 5646 5649 5651 5653 5655 5657 5660 5663 5666 5669 5672 5676 5679 5682 5685 5688 5691 5695 5699 5701 5704 5706 5709 5711 5713 5715 5716 5718 5718 5720 5720
5630 5631 5632 5632 5633 5633 5635 5636 5636 5636 5636 5636 5639 5641 5644 5645 5647 5649 5651 5654 5656 5659 5661 5663 5666 5669 5672 5674 5678 5680 5684 5688 5691 5693 5696 5698 5700 5702 5704 5705 5707 5708 5709 5709
5627 5628 5629 5629 5629 5630 5631 5632 5632 5632 5633 5633 5634 5639 5639 5640 5641 5643 5645 5647 5649 5651 5652 5655 5657 5660 5662 5665 5667 5670 5674 5677 5680 5683 5686 5688 5690 5691 5693 5694 5696 5697 5698 5699
5623 5624 5624 5625 5625 5626 5627 5628 5628 5629 5630 5630 5630 5636 5634 5635 5635 5636 5638 5639 5641 5643 5644 5646 5648 5650 5653 5655 5657 5661 5664 5667 5669 5672 5674 5676 5678 5680 5682 5684 5685 5686 5687 5688
5619 5620 5621 5622 5624 5623 5623 5624 5624 5625 5626 5626 5626 5631 5629 5629 5629 5630 5631 5632 5633 5635 5636 5637 5639 5641 5643 5645 5648 5651 5654 5657 5659 5662 5664 5666 5668 5669 5671 5673 5674 5675 5676 5677
5616 5616 5617 5618 5617 5618 5619 5620 5620 5620 5621 5621 5623 5624 5624 5623 5623 5624 5624 5625 5626 5627 5628 5629 5631 5633 5634 5637 5638 5641 5644 5647 5649 5651 5653 5655 5657 5659 5660 5662 5663 5664 5666 5666
5611 5612 5612 5613 5613 5614 5614 5615 5615 5615 5616 5617 5618 5619 5619 5618 5617 5618 5618 5618 5619 5619 5621 5622 5623 5624 5626 5627 5629 5631 5634 5636 5639 5641 5643 5644 5646 5648 5650 5651 5652 5653 5654 5655
5607 5608 5608 5609 5609 5609 5610 5611 5610 5611 5611 5611 5612 5613 5613 5612 5611 5611 5611 5612 5612 5612 5613 5613 5615 5616 5617 5618 5620 5622 5623 5626 5628 5630 5632 5634 5636 5637 5639 5640 5641 5642 5643 5643
5603 5603 5604 5604 5604 5604 5605 5606 5606 5606 5606 5606 5606 5608 5606 5605 5605 5605 5605 5605 5605 5605 5605 5606 5606 5607 5608 5609 5610 5612 5613 5615 5617 5619 5621 5623 5625 5626 5627 5628 5630 5631 5632 5632
5598 5598 5598 5598 5599 5599 5603 5600 5600 5600 5600 5600 5600 5600 5599 5599 5599 5599 5598 5598 5598 5598 5598 5598 5598 5598 5599 5599 5600 5602 5603 5605 5607 5609 5610 5612 5614 5615 5616 5617 5619 5619 5620 5621
5593 5593 5592 5592 5592 5593 5595 5595 5594 5593 5594 5594 5594 5593 5593 5592 5592 5592 5591 5591 5591 5590 5590 5590 5590 5590 5590 5590 5591 5591 5593 5594 5596 5598 5599 5601 5602 5604 5605 5606 5607 5608 5609 5610
5587 5587 5588 5586 5585 5586 5590 5589 5587 5588 5588 5588 5587 5586 5586 5585 5585 5586 5584 5584 5583 5582 5582 5582 5581 5581 5581 5581 5581 5582 5583 5584 5586 5587 5589 5590 5591 5593 5594 5595 5596 5597 5598 5598
5582 5581 5581 5580 5579 5580 5582 5581 5580 5581 5582 5580 5579 5579 5578 5578 5578 5578 5576 5575 5574 5574 5573 5573 5573 5572 5572 5572 5572 5572 5573 5574 5576 5577 5578 5579 5580 5581 5583 5584 5585 5586 5587 5587
5575 5575 5574 5573 5572 5576 5575 5574 5574 5574 5573 5572 5571 5571 5571 5570 5569 5569 5568 5567 5566 5565 5564 5564 5564 5563 5563 5562 5563 5563 5564 5565 5565 5566 5567 5568 5569 5571 5572 5573 5574 5575 5576 5576
5569 5569 5568 5568 5569 5568 5567 5566 5565 5565 5565 5564 5564 5563 5563 5563 5562 5561 5560 5559 5558 5557 5556 5555 5555 5554 5554 5553 5553 5554 5554 5554 5555 5556 5557 5558 5559 5560 5561 5563 5564 5565 5565 5566
5563 5561 5560 5560 5560 5560 5559 5558 5557 5557 5556 5556 5556 5555 5555 5554 5554 5553 5552 5551 5550 5549 5548 5547 5546 5545 5545 5544 5544 5544 5544 5544 5545 5546 5547 5548 5549 5549 5550 5552 5553 5554 5555 5556
5555 5554 5553 5552 5553 5552 5551 5550 5549 5549 5548 5548 5548 5547 5546 5546 5545 5545 5544 5542 5541 5540 5539 5538 5538 5537 5536 5535 5534 5534 5534 5535 5535 5536 5537 5537 5538 5539 5541 5542 5543 5544 5545 5546
5548 5547 5546 5545 5544 5543 5543 5542 5541 5540 5540 5540 5539 5538 5537 5537 5536 5536 5535 5534 5533 5532 5531 5530 5529 5528 5527 5526 5525 5525 5525 5525 5526 5526 5527 5528 5529 5530 5531 5532 5532 5533 5534 5535